Torna al catalogo

FENGYUN 1C DEB

AttivoLEO
NORAD 31503·DEBRIS·🇨🇳 China

Lanciato May 10, 1999 da Taiyuan Satellite Launch Center

Loading…

Prossimi Passaggi (prossime 24 ore)

TLE

In scadenzaSource: Space-Track

Epoca: Sep 10, 2026, 11:55 UTC

1 31503U 99025BWS 26253.49702730  .00001050  00000-0  47966-3 0  9998
2 31503 100.0785 163.9677 0048241 151.8073 208.5728 14.23556521681122

Traccia FENGYUN 1C DEB in tempo reale con AllMySat

Download on the App Store